Regional Weather Roundup
Issued by NWS Sioux Falls, SD

Home | Current Version | Previous Version | Text Only | Print | Product List | Glossary On
Versions: 1 2 3 4 5 6 7 8 9 10 11 12 13 14 15 16 17 18 19 20 21 22 23 24 25 26 27 28 29 30 31 32 33 34 35 36 37 38 39 40 41 42 43 44 45 46 47 48 49 50
725
ASUS43 KFSD 221110
RWRFSD

WEATHER ROUNDUP FOR SE SOUTH DAKOTA/SW MINNESOTA/NW IOWA
NATIONAL WEATHER SERVICE SIOUX FALLS SD
500 AM CST WED NOV 22 2017

NOTE: "FAIR" INDICATES FEW OR NO CLOUDS BELOW 12,000 FEET WITH NO
SIGNIFICANT WEATHER AND OR OBSTRUCTIONS TO VISIBILITY.


SDZ038>040-050-052>070-221200-
SOUTHEAST SOUTH DAKOTA

CITY           SKY/WX    TMP DP  RH WIND       PRES   REMARKS
BROOKINGS      CLOUDY    11   7  84 S9        30.27F WCI  -2
CHAMBERLAIN    CLOUDY    19  16  87 SE5       30.21F WCI  12
HURON          CLOUDY    11   6  81 SE7       30.27F WCI   0
MADISON        FAIR      10  10 100 S5        30.27F WCI   2
MITCHELL       CLOUDY    12   8  84 SE5       30.30F WCI   4
SIOUX FALLS    CLOUDY    13   7  77 S5        30.31F WCI   5
WINNER         FAIR      24  16  71 SE7       30.16F WCI  16
YANKTON        CLOUDY    12   9  87 SE3       30.33F
$$

MNZ071-072-080-081-089-090-097-098-221200-
SOUTHWEST MINNESOTA

CITY           SKY/WX    TMP DP  RH WIND       PRES   REMARKS
FAIRMONT       CLOUDY    12   8  84 W6        30.35F WCI   3
JACKSON        CLOUDY    12   9  85 CALM      30.32F
LUVERNE        CLOUDY     9   5  85 CALM      30.33F
MARSHALL       CLOUDY    10   6  84 S3        30.31F
MONTEVIDEO     CLOUDY    10   7  85 CALM      30.31F
PIPESTONE      CLOUDY     9   3  78 S5        30.28F WCI   0
REDWOOD FALLS  CLOUDY    12   6  77 SW5       30.32F WCI   4
WINDOM         CLOUDY    10   0  61 CALM      30.31F
WORTHINGTON    CLOUDY    12   7  80 S6        30.31F WCI   3
$$

IAZ001>003-012>014-020>022-031-032-NEZ013-014-SDZ071-221200-
NORTHWEST IOWA

CITY           SKY/WX    TMP DP  RH WIND       PRES   REMARKS
CHEROKEE       CLOUDY    11   9  92 CALM      30.36S
DENISON        CLOUDY    12  10  92 CALM      30.38F
ESTHERVILLE    CLOUDY     8   6  92 W6        30.34F WCI  -2
LE MARS        CLOUDY    10   9  92 CALM      30.36S
ORANGE CITY    CLOUDY    12   9  85 CALM      30.34S
SHELDON        CLOUDY     9   5  85 CALM      30.32F
SIOUX CITY     CLOUDY    12   8  84 CALM      30.38S
SPENCER        CLOUDY     9   6  88 S3        30.34F
STORM LAKE     CLOUDY    10   7  85 CALM      30.34F
$$

ABBREVIATIONS USED IN REMARKS
   TC - TEMPERATURE IN CELSIUS
  WCI - WIND CHILL INDEX
   HX - HEAT INDEX
  VSB - VISIBILITY





USA.gov is the U.S. government's official web portal to all federal, state and local government web resources and services.